Wind_Speed
31 32 33 34 35 34 33 32 31 31 32 32 30 29 29 29 29 29 30 30 29 29 30 30 29 27 26 26 26 26 25 24 24 25 26 26 24 21 21 21 20 18 17 16 16 15 15 15 15 14 14 13 12 11 11 10 10 9 9 9 8 8 8
33 33 34 35 36 35 33 32 31 31 33 33 31 30 29 29 30 30 31 30 29 29 29 30 30 28 26 25 26 27 27 25 24 23 25 27 26 24 22 22 21 20 18 17 17 17 17 16 16 16 15 15 14 13 12 11 11 10 10 9 9 8 8
34 33 33 34 35 35 33 32 32 32 32 33 32 30 30 30 30 30 30 31 30 29 29 30 30 29 27 26 26 27 27 27 26 23 23 25 27 26 24 23 23 22 21 20 19 19 18 18 17 17 16 16 15 15 13 12 12 12 11 10 10 10 9
34 34 31 31 32 33 34 33 33 33 33 33 31 29 29 29 28 28 29 30 30 31 30 30 30 29 29 27 26 26 27 28 27 24 22 23 25 26 26 25 25 24 24 23 22 21 20 19 18 18 17 17 16 16 15 14 13 12 12 12 12 11 10
32 34 33 32 32 33 34 34 34 33 32 32 31 29 28 27 27 28 29 30 31 31 30 29 29 30 30 29 27 27 27 27 27 26 24 23 24 26 27 26 26 26 25 24 24 23 22 21 20 19 18 17 17 17 16 16 15 14 13 13 13 13 12
30 35 33 33 32 31 32 33 33 32 30 30 29 28 28 27 27 28 28 30 32 32 32 31 30 30 30 30 29 27 27 27 28 27 26 25 25 26 26 26 26 26 26 25 25 25 24 23 22 20 20 19 18 18 18 18 17 16 15 14 14 14 14
29 34 32 31 30 29 29 29 30 30 29 29 28 28 28 28 27 27 27 29 31 33 34 34 32 31 31 31 30 29 28 27 27 27 27 26 26 26 26 26 26 26 26 26 26 25 25 24 23 22 21 21 20 19 19 19 18 18 17 16 15 15 15
25 29 30 30 28 26 27 27 27 29 29 30 29 29 29 28 28 28 28 28 30 33 35 35 34 32 31 31 31 31 30 28 27 27 27 27 27 27 27 27 27 26 27 27 26 26 26 25 24 23 23 23 22 21 20 20 20 19 19 18 17 16 16
25 25 25 26 25 24 25 25 25 27 28 29 30 30 29 28 28 29 28 27 29 33 36 36 35 33 32 32 32 32 31 30 29 28 28 28 28 27 27 27 27 27 28 28 27 26 26 26 25 24 24 24 24 23 22 22 21 21 20 20 19 18 17
30 29 27 24 22 21 23 25 27 28 29 29 29 29 29 29 28 29 29 28 28 32 34 35 35 35 34 33 32 32 33 32 32 30 29 29 29 28 27 27 27 27 28 28 28 28 27 26 26 25 25 25 25 24 23 23 23 22 22 21 20 19 19
34 36 36 33 30 27 27 27 27 27 27 28 30 29 28 28 28 28 29 29 29 30 32 33 35 36 36 34 33 33 34 34 34 33 32 30 29 29 28 28 28 28 28 29 29 29 28 27 27 27 27 26 26 25 24 23 23 23 23 22 21 21 20
37 39 41 41 41 39 37 35 33 30 28 27 28 28 27 27 27 28 29 30 30 29 30 31 33 35 36 35 35 35 34 34 34 34 33 32 31 29 29 29 29 29 29 29 29 29 29 29 28 28 28 27 26 26 25 24 24 24 23 23 22 22 22
39 40 42 43 44 43 42 41 39 38 36 33 31 29 27 26 26 27 28 29 30 30 29 30 31 33 35 36 36 36 35 34 34 34 33 33 32 31 30 30 30 30 30 30 30 30 30 30 29 28 27 27 27 27 26 26 26 25 24 23 23 24 23
39 40 41 43 44 44 44 42 40 40 40 39 38 37 36 33 30 29 27 27 28 29 29 30 30 32 33 35 36 35 34 34 33 33 33 33 33 32 31 31 31 31 31 31 31 31 31 30 29 28 27 27 28 29 28 28 28 27 26 25 25 25 25
29 36 38 40 43 44 45 44 43 42 41 40 40 41 42 43 41 37 33 31 31 31 31 29 30 31 33 35 36 35 33 34 34 34 33 33 33 33 32 32 32 32 32 32 32 32 32 31 30 29 27 26 27 29 30 30 29 28 28 27 26 26 26
17 23 30 34 39 43 46 47 45 44 42 42 41 41 43 44 44 43 41 38 36 35 33 31 30 30 32 34 35 34 33 33 34 35 35 34 33 33 33 33 33 32 32 33 32 32 32 32 31 30 29 27 27 28 30 32 31 29 29 29 28 28 28
15 13 18 26 33 38 42 46 46 44 43 43 43 42 43 42 40 41 42 42 40 37 34 32 31 31 33 34 34 34 34 33 33 33 35 35 34 33 33 32 33 33 33 33 33 32 33 33 33 32 30 29 28 29 30 32 31 30 29 29 29 30 30
10 11 9 10 19 30 38 41 42 42 42 43 43 42 42 43 41 40 42 43 43 39 35 33 32 32 33 34 33 33 31 29 30 33 35 36 35 34 33 33 32 33 33 33 33 32 33 33 33 33 31 30 29 29 30 31 30 30 29 29 29 30 31
6 8 9 10 5 10 24 30 33 36 38 40 42 42 42 43 41 39 39 41 42 40 37 35 32 31 32 32 32 32 29 24 24 29 32 35 35 35 34 34 33 32 32 32 32 32 33 33 33 33 32 31 30 30 30 30 30 29 29 28 28 29 30
8 8 5 7 12 9 5 16 23 28 32 33 36 40 42 41 39 37 35 37 37 36 35 33 30 28 29 30 32 34 31 26 23 25 28 31 33 35 35 35 33 32 31 32 32 33 33 33 33 33 32 31 30 30 30 30 29 29 28 28 28 28 29
17 9 6 4 4 10 7 6 15 19 23 25 29 35 37 38 39 36 33 34 34 33 32 29 27 26 25 27 30 33 34 31 28 27 29 31 33 34 34 34 33 31 31 31 32 32 32 32 32 33 32 31 30 29 30 29 28 28 27 27 27 28 28
25 17 10 8 6 3 7 7 6 7 10 15 21 29 33 36 38 37 34 33 33 32 29 26 24 23 23 25 28 29 31 31 30 31 33 34 34 34 34 34 33 32 31 31 31 31 31 32 32 32 32 31 30 30 29 29 28 27 26 26 27 27 29
27 27 19 11 10 8 1 5 8 8 6 7 13 20 26 31 35 35 34 32 31 30 27 24 23 22 24 26 27 26 27 28 30 33 35 37 37 36 35 35 35 34 33 32 31 30 30 31 31 32 32 31 31 30 29 28 28 27 26 26 26 27 29
25 29 27 19 15 13 9 3 5 8 7 6 8 12 18 23 26 29 30 30 29 28 27 26 25 24 25 26 26 25 27 29 32 34 37 39 39 38 37 36 35 35 35 34 32 30 29 29 30 30 31 30 30 30 29 28 27 27 27 26 26 26 27
23 28 30 26 20 18 15 11 9 7 6 5 6 9 14 17 20 25 28 29 28 28 27 27 27 27 27 26 25 25 28 31 34 36 39 41 41 39 38 37 36 35 35 35 34 32 31 30 30 30 30 30 30 30 29 29 28 27 27 27 27 27 27
26 28 31 30 26 22 19 17 15 12 8 6 6 9 13 15 19 23 26 28 28 27 26 27 29 29 29 28 27 28 31 34 36 39 41 43 42 40 39 38 37 36 36 36 36 34 33 32 31 31 31 30 30 30 30 29 28 28 28 28 29 29 29
30 30 32 33 31 27 23 21 19 17 14 10 10 11 13 15 17 20 23 26 26 26 27 29 29 30 32 31 30 32 35 37 38 41 43 42 41 40 38 38 38 38 37 36 37 36 36 34 33 32 31 31 31 30 30 29 29 28 28 28 29 30 30
33 34 34 35 36 33 28 24 22 22 21 17 13 12 13 16 17 19 21 23 24 27 30 31 30 32 35 35 34 37 40 40 42 45 45 42 40 39 37 37 38 39 39 37 37 38 37 36 35 33 32 31 31 31 30 30 29 29 28 28 28 29 30
35 37 38 38 40 39 35 31 27 26 26 24 19 15 14 16 18 19 20 21 23 27 30 32 33 36 39 39 38 41 45 47 49 50 48 43 41 40 38 36 37 39 40 39 38 39 39 38 37 36 34 32 31 31 30 30 30 30 29 28 29 30 30
36 37 39 40 42 43 42 39 35 32 29 28 27 23 18 17 19 20 20 20 23 27 30 31 34 37 39 40 39 41 46 49 51 51 48 44 42 40 39 37 36 38 39 39 38 39 40 40 40 39 37 34 32 31 30 29 29 29 28 28 29 30 29
35 37 39 40 42 45 46 45 41 38 35 32 32 30 25 20 20 21 21 21 24 27 30 32 34 36 38 39 40 41 44 46 47 47 46 45 43 41 40 38 37 37 37 38 38 39 40 41 42 41 39 37 34 32 31 29 29 28 28 28 29 29 29
33 35 38 40 41 42 45 46 44 42 42 38 35 35 32 27 23 22 22 24 25 27 29 32 35 36 37 38 39 40 42 43 45 45 45 45 44 42 41 40 39 37 36 37 37 39 40 41 43 43 42 39 36 34 32 31 30 29 28 27 28 28 28
32 32 35 39 39 38 39 41 43 45 46 44 40 38 36 32 28 24 24 26 28 29 30 33 35 37 38 38 39 40 41 42 44 45 45 45 44 42 41 41 40 39 38 37 37 38 40 41 42 44 44 42 39 36 35 34 32 30 29 28 27 27 26
32 32 33 35 37 36 36 37 41 46 48 48 45 42 39 36 32 28 27 28 29 31 32 34 36 38 39 39 40 40 40 40 42 44 45 45 44 42 42 41 41 41 39 38 37 38 38 39 41 44 45 44 43 41 38 36 33 31 30 28 26 25 25
32 32 33 34 34 35 35 35 37 41 45 48 48 47 44 40 36 33 31 31 31 33 34 36 37 39 39 40 41 41 40 40 40 42 43 44 44 43 42 42 42 41 38 36 36 35 35 36 39 43 45 45 46 44 40 37 32 29 27 26 25 24 24
32 32 33 33 33 33 33 34 34 36 39 43 48 50 48 43 39 37 35 34 34 35 36 37 38 39 40 40 41 41 40 40 40 40 42 43 44 44 44 43 42 39 36 34 33 33 32 34 37 41 43 45 46 45 41 37 32 28 26 26 26 25 24
33 33 32 32 33 33 33 33 33 33 34 38 44 50 51 47 43 40 38 37 37 37 37 38 39 40 40 41 42 42 41 41 41 40 41 43 45 47 46 43 40 38 36 34 34 33 32 33 35 37 40 43 45 44 41 38 34 31 29 27 26 26 24
33 34 33 32 32 33 34 34 32 32 33 35 40 47 51 50 46 43 41 39 39 39 39 39 41 41 41 42 43 43 42 42 43 43 44 45 47 47 45 42 41 41 40 38 36 36 36 36 36 37 39 41 42 41 40 39 36 33 30 27 25 26 25
Wind_Direction
220 218 217 217 217 218 219 221 222 221 221 223 222 219 217 214 209 207 208 210 210 210 209 210 211 213 213 214 216 216 215 213 210 209 210 213 216 213 207 207 211 214 212 203 200 203 202 199 200 198 197 198 198 196 193 189 183 175 171 170 164 157 157
225 220 218 217 217 218 218 220 223 224 224 225 225 222 220 217 212 208 207 208 209 209 210 211 211 213 213 213 216 218 218 218 215 210 208 212 216 215 211 208 208 211 214 210 204 205 207 205 204 203 200 201 202 200 198 197 191 184 181 179 173 167 165
227 222 218 218 218 218 218 219 222 225 227 227 226 223 220 218 214 209 207 207 207 207 208 210 212 212 213 213 214 217 219 220 220 215 209 210 215 216 214 211 209 208 210 212 211 209 209 208 208 207 205 204 204 203 201 202 199 192 189 188 183 177 171
224 224 221 218 219 220 220 221 223 225 227 226 226 225 223 220 216 211 209 209 208 207 206 206 208 211 212 213 213 215 218 220 222 221 215 211 213 217 217 214 211 210 209 210 212 213 213 211 211 211 210 208 207 206 204 205 205 200 195 194 193 189 182
218 223 223 219 218 219 220 221 223 225 225 224 224 225 225 224 219 215 212 210 210 210 208 206 207 209 210 212 213 213 215 219 222 223 221 216 214 216 219 217 214 212 211 211 212 214 215 215 214 214 214 213 211 210 208 207 208 206 201 199 198 197 194
215 218 221 220 218 218 218 218 221 224 225 223 224 225 226 225 222 218 214 211 210 210 210 209 208 209 209 209 211 211 213 216 219 222 223 221 218 217 219 220 219 216 215 215 215 216 217 217 217 217 218 217 215 214 213 210 209 209 207 204 203 202 201
212 214 217 217 218 216 214 215 218 221 223 223 224 225 227 227 224 220 217 213 211 210 209 209 208 207 208 209 209 210 211 213 216 219 222 222 221 219 219 220 221 221 220 220 219 220 220 220 219 219 220 221 220 217 216 214 213 212 211 208 207 208 208
207 210 214 214 215 215 212 212 215 217 220 221 223 225 226 227 225 222 221 217 212 210 209 209 208 206 206 208 210 210 210 211 214 217 219 221 222 220 219 218 219 221 223 224 223 223 224 224 222 221 221 224 224 221 219 218 216 215 213 212 211 212 213
201 204 213 214 214 215 213 213 214 216 219 220 222 224 225 227 226 224 224 221 214 210 210 210 209 208 207 208 210 210 210 211 212 215 217 220 221 220 219 218 217 219 222 225 226 226 226 225 225 224 223 224 227 226 223 221 221 219 215 214 214 213 214
204 204 212 214 213 213 213 215 217 218 219 222 224 224 224 225 227 226 226 225 218 212 211 210 210 210 210 210 210 211 211 212 211 214 216 218 220 219 219 218 217 218 221 223 226 228 228 226 226 226 226 225 226 227 227 224 224 223 219 216 216 215 215
207 208 213 216 216 216 217 218 221 221 221 223 225 226 226 226 226 227 228 227 222 215 212 211 210 212 212 212 212 212 213 213 212 213 214 217 219 220 219 219 219 219 220 221 224 227 229 228 227 226 226 225 225 225 226 226 226 226 224 221 219 218 219
207 210 214 217 218 219 220 220 221 224 224 225 226 226 227 227 227 228 229 230 228 222 216 213 211 212 214 214 214 214 215 215 215 214 213 216 219 220 220 220 220 221 220 221 223 225 228 230 229 227 226 226 226 225 225 224 226 227 226 224 223 223 223
207 210 212 215 218 220 221 221 221 223 225 226 227 227 227 227 226 228 230 232 233 229 223 218 215 214 214 215 217 217 217 218 219 218 216 216 217 219 221 221 221 222 222 222 224 225 227 229 230 229 226 224 225 226 226 224 224 225 226 225 225 225 225
206 211 212 214 218 220 222 224 224 224 225 225 226 227 227 227 228 229 232 235 236 236 230 223 218 217 215 216 218 220 220 220 221 222 220 219 218 219 221 222 222 223 223 224 226 226 228 229 231 232 228 224 223 225 227 227 225 224 225 225 226 226 227
191 205 211 214 217 221 223 225 227 226 225 225 225 226 227 227 227 228 230 233 236 237 235 228 223 220 218 218 219 221 222 222 223 224 224 223 222 220 220 221 222 224 224 225 227 228 230 231 231 232 231 226 223 223 226 228 227 225 225 226 227 228 229
142 180 198 208 213 219 223 224 227 228 226 224 225 227 229 229 229 227 227 228 232 234 234 230 227 224 221 221 222 223 223 223 224 225 226 226 225 224 222 222 222 224 224 225 226 228 231 232 232 233 232 229 226 224 225 228 229 227 225 226 228 230 232
87 125 171 195 203 212 219 222 226 228 228 226 224 226 229 230 231 231 229 226 227 231 233 231 228 225 223 221 221 224 227 226 225 226 227 227 227 226 226 225 225 225 225 226 226 227 230 232 234 235 234 232 230 228 227 228 230 230 229 228 228 230 232
57 68 112 171 196 204 207 212 219 224 226 228 226 226 229 228 228 232 234 232 229 228 230 233 231 227 224 223 221 221 226 229 227 226 227 226 226 226 227 227 227 227 227 227 227 227 229 232 235 236 236 235 232 231 230 229 229 230 231 231 231 231 233
10 20 50 60 70 198 201 202 207 213 219 225 226 228 232 231 229 229 233 238 238 232 228 230 233 233 229 229 228 225 227 231 226 219 218 220 222 224 225 227 228 228 228 229 228 228 229 231 235 237 237 236 234 233 233 232 230 230 229 231 232 232 234
298 330 354 47 53 51 197 207 206 208 214 220 225 228 232 235 233 231 233 239 243 243 237 229 227 231 232 231 232 231 231 234 229 215 210 213 217 220 223 225 227 229 230 230 230 230 230 231 234 237 238 238 236 234 234 234 233 232 230 230 231 232 235
265 285 303 297 43 57 67 190 209 215 219 221 223 225 228 232 233 232 234 236 239 246 250 242 227 225 230 231 232 235 238 241 237 226 218 216 216 218 220 223 226 228 230 231 231 231 231 232 234 237 240 241 239 236 235 234 234 234 233 231 231 232 235
263 264 277 290 290 5 66 103 156 195 217 220 220 223 227 232 233 232 234 236 237 241 248 247 233 226 231 233 232 235 241 244 240 232 225 222 220 220 220 220 223 226 229 232 233 233 233 233 234 236 239 241 241 240 237 234 233 235 235 234 232 233 234
268 265 265 282 294 292 336 101 117 127 153 197 214 222 228 232 233 232 232 234 238 241 239 235 229 229 236 239 235 232 234 237 236 232 228 226 224 223 222 222 223 225 228 231 233 233 234 234 234 236 239 241 242 242 240 236 233 233 234 234 234 234 234
270 265 261 268 285 286 280 248 154 138 143 172 199 214 223 228 230 230 231 232 234 238 237 233 230 231 235 239 236 230 226 228 232 230 227 225 225 225 226 225 225 226 228 232 234 235 235 236 237 238 240 241 242 242 242 239 236 234 233 232 233 234 235
273 267 261 261 271 277 273 257 229 193 167 170 193 207 214 218 218 220 227 231 230 231 234 236 236 232 229 229 228 224 223 226 231 230 226 223 223 225 227 228 227 227 229 232 235 236 237 238 239 239 240 242 243 243 243 241 238 235 232 231 231 233 235
276 271 262 259 265 273 275 265 247 231 217 212 215 215 213 211 209 212 220 224 226 228 231 235 236 231 223 220 218 217 219 223 227 230 226 222 223 226 227 229 229 229 229 231 234 237 238 238 239 239 240 241 243 244 244 243 240 237 234 231 230 232 235
278 277 269 261 260 266 273 271 257 244 242 239 222 214 214 213 210 213 218 221 223 228 231 234 235 228 221 217 213 211 214 218 223 229 228 224 225 228 229 230 230 229 230 232 235 237 238 238 240 240 241 242 243 244 245 244 243 241 238 235 233 233 235
273 276 274 266 262 264 269 270 262 253 252 250 235 221 219 217 213 215 220 222 223 228 232 234 232 226 223 223 217 211 212 216 222 228 230 228 229 232 232 232 231 230 231 233 236 238 239 239 240 241 241 241 243 244 246 245 245 244 241 239 238 237 238
272 275 274 269 266 265 266 270 270 263 257 253 249 244 232 223 218 216 219 221 223 227 232 234 232 229 229 230 226 219 216 218 223 229 232 231 232 235 235 234 232 230 230 232 235 237 239 240 241 242 241 241 241 243 245 246 246 245 243 242 242 242 242
274 275 274 273 271 266 264 268 274 272 265 258 255 255 248 234 226 221 218 221 225 227 230 233 235 235 235 236 234 229 225 225 228 232 234 234 234 236 236 235 234 231 230 231 234 237 239 240 241 242 242 241 240 241 243 245 247 247 246 244 245 246 246
275 275 274 273 274 271 267 267 272 275 273 267 261 259 257 248 237 230 223 223 227 230 230 232 235 238 240 241 239 236 233 233 233 235 235 236 237 238 238 238 237 233 230 230 233 236 238 239 240 242 243 242 242 242 242 243 245 247 247 247 247 248 248
273 273 272 271 273 274 271 269 270 273 273 272 267 262 260 256 248 239 231 228 230 232 233 232 234 237 240 242 243 242 241 239 238 237 238 239 240 239 240 241 242 240 236 234 234 235 238 239 240 241 242 243 243 242 243 243 242 244 246 247 248 249 250
271 270 269 269 271 273 273 271 272 271 270 271 269 264 260 260 255 244 238 236 235 234 235 234 235 237 239 241 243 245 247 246 243 241 240 241 240 239 240 241 244 244 242 239 236 235 236 238 240 241 242 243 243 242 243 243 242 242 243 244 247 250 252
271 269 267 266 267 269 270 270 271 271 269 269 268 263 259 261 260 250 243 242 241 240 238 236 236 238 239 241 244 246 247 249 247 244 243 242 242 241 240 241 244 245 245 243 239 238 239 240 241 241 241 242 243 243 243 243 243 243 243 244 246 250 254
270 268 266 264 263 263 265 266 267 268 268 268 267 262 257 259 262 257 249 246 245 245 243 239 238 239 240 242 244 246 248 249 248 246 244 243 244 244 244 244 246 247 248 248 247 246 246 245 243 242 242 243 243 243 243 244 245 246 247 248 247 247 251
266 267 267 265 260 258 259 261 262 264 266 266 265 262 257 258 263 261 254 250 249 248 246 243 241 240 241 242 244 247 248 249 249 248 246 244 245 245 246 246 247 247 249 251 251 252 252 250 246 244 245 244 243 242 243 245 246 247 248 247 245 243 245
263 264 266 265 261 256 255 256 258 261 263 263 262 260 257 257 262 262 256 252 251 250 249 247 244 243 243 243 244 245 247 248 249 248 247 246 244 244 245 247 248 247 246 246 247 250 253 253 251 249 246 244 243 242 241 241 242 242 241 241 241 240 239
260 261 263 264 261 256 253 253 255 259 260 259 259 258 256 257 262 262 258 254 252 251 251 249 247 246 245 245 245 245 245 247 248 248 248 248 247 247 247 248 248 245 241 240 243 247 249 250 250 249 247 244 242 240 238 237 237 236 236 237 238 236 234
Height
3151 3152 3153 3154 3156 3158 3160 3162 3163 3166 3168 3170 3172 3175 3178 3180 3182 3185 3187 3189 3191 3194 3195 3197 3198 3200 3203 3205 3207 3209 3211 3213 3215 3217 3219 3221 3222 3224 3226 3228 3229 3230 3231 3233 3234 3235 3236 3236 3237 3237 3238 3239 3239 3240 3241 3242 3243 3244 3244 3245 3245 3245 3245
3149 3151 3152 3153 3154 3156 3158 3160 3162 3163 3165 3167 3170 3173 3175 3178 3180 3182 3185 3187 3190 3192 3194 3195 3197 3198 3201 3203 3206 3207 3209 3211 3213 3215 3217 3219 3221 3223 3225 3227 3228 3229 3230 3232 3233 3234 3235 3236 3236 3237 3238 3238 3239 3239 3240 3241 3242 3243 3244 3245 3245 3245 3245
3147 3148 3149 3150 3151 3153 3156 3158 3160 3161 3163 3165 3167 3170 3173 3175 3178 3180 3183 3185 3188 3190 3192 3193 3195 3197 3199 3201 3204 3206 3207 3209 3211 3213 3215 3217 3219 3221 3223 3225 3227 3228 3229 3230 3232 3233 3234 3235 3236 3236 3237 3238 3238 3239 3239 3240 3241 3242 3243 3244 3245 3245 3245
3144 3146 3147 3148 3150 3152 3154 3156 3158 3160 3161 3164 3166 3168 3171 3173 3176 3179 3181 3184 3186 3187 3189 3191 3193 3195 3197 3199 3201 3204 3206 3207 3209 3211 3214 3216 3218 3220 3222 3223 3225 3227 3228 3229 3230 3231 3233 3234 3234 3235 3236 3237 3237 3238 3239 3239 3240 3241 3242 3243 3244 3245 3245
3140 3143 3145 3147 3148 3150 3152 3154 3156 3158 3160 3162 3164 3167 3169 3172 3174 3177 3179 3182 3184 3186 3188 3190 3192 3193 3195 3197 3199 3202 3204 3206 3208 3209 3212 3214 3216 3218 3219 3221 3223 3225 3227 3228 3229 3230 3231 3232 3233 3234 3235 3236 3236 3237 3238 3238 3239 3240 3241 3242 3243 3244 3244
3138 3140 3142 3144 3146 3147 3150 3152 3154 3156 3158 3160 3163 3165 3167 3170 3172 3175 3177 3180 3182 3184 3186 3188 3190 3191 3193 3195 3197 3199 3202 3204 3206 3208 3209 3212 3214 3216 3217 3219 3221 3223 3225 3227 3228 3229 3230 3231 3232 3233 3234 3234 3235 3236 3236 3237 3238 3239 3240 3241 3242 3243 3244
3135 3138 3140 3142 3144 3146 3148 3151 3153 3155 3157 3159 3161 3163 3165 3168 3170 3173 3175 3177 3179 3182 3183 3185 3187 3189 3191 3193 3195 3197 3199 3201 3204 3206 3208 3209 3211 3213 3216 3218 3219 3221 3223 3225 3226 3227 3228 3229 3230 3231 3232 3233 3234 3234 3235 3236 3237 3237 3238 3239 3240 3242 3242
3134 3137 3139 3141 3143 3145 3147 3150 3152 3154 3155 3157 3159 3161 3163 3165 3168 3170 3172 3175 3177 3179 3180 3182 3184 3186 3189 3191 3193 3194 3196 3199 3202 3204 3206 3207 3209 3211 3213 3215 3217 3219 3221 3222 3224 3225 3226 3228 3229 3230 3231 3231 3232 3233 3234 3234 3235 3236 3237 3238 3239 3240 3241
3133 3136 3139 3141 3143 3145 3147 3149 3151 3153 3154 3156 3157 3159 3161 3163 3165 3168 3170 3173 3175 3176 3178 3180 3182 3184 3187 3189 3190 3192 3194 3196 3199 3201 3203 3205 3207 3209 3211 3213 3215 3217 3218 3220 3221 3223 3224 3226 3227 3228 3229 3230 3231 3232 3232 3233 3234 3234 3235 3236 3237 3238 3240
3132 3135 3138 3142 3144 3145 3147 3149 3150 3151 3153 3154 3156 3158 3160 3161 3164 3166 3168 3170 3173 3174 3176 3179 3181 3182 3184 3186 3189 3191 3192 3193 3195 3198 3200 3202 3204 3206 3209 3211 3213 3214 3216 3218 3219 3220 3222 3224 3225 3226 3227 3228 3229 3230 3231 3232 3232 3233 3234 3235 3236 3237 3238
3129 3132 3135 3139 3142 3144 3146 3148 3149 3150 3152 3153 3154 3156 3158 3160 3162 3164 3166 3168 3170 3173 3175 3177 3179 3180 3181 3184 3186 3188 3190 3191 3193 3194 3196 3199 3202 3204 3207 3208 3210 3212 3214 3215 3217 3218 3220 3221 3222 3224 3225 3226 3227 3228 3229 3230 3231 3232 3232 3233 3234 3235 3236
3126 3128 3131 3134 3136 3139 3141 3143 3145 3148 3150 3152 3153 3154 3156 3158 3160 3162 3164 3166 3168 3170 3173 3175 3177 3178 3179 3181 3183 3185 3188 3190 3191 3192 3194 3196 3199 3202 3204 3206 3208 3209 3211 3213 3214 3216 3217 3219 3220 3221 3222 3224 3225 3226 3227 3228 3229 3230 3231 3232 3233 3233 3234
3123 3125 3127 3130 3132 3135 3137 3138 3140 3142 3145 3148 3150 3153 3154 3156 3159 3160 3162 3163 3165 3168 3170 3173 3175 3176 3177 3179 3181 3183 3185 3187 3189 3191 3192 3194 3196 3199 3202 3204 3205 3207 3208 3210 3212 3213 3215 3216 3218 3219 3220 3222 3223 3224 3225 3226 3227 3228 3229 3230 3231 3231 3232
3122 3124 3126 3127 3129 3131 3134 3136 3138 3139 3141 3143 3146 3149 3151 3154 3157 3159 3160 3162 3163 3165 3167 3170 3172 3174 3175 3177 3179 3181 3183 3186 3188 3190 3192 3193 3194 3196 3199 3201 3203 3204 3206 3208 3209 3210 3212 3214 3215 3217 3218 3220 3221 3222 3223 3224 3225 3225 3226 3227 3228 3229 3230
3120 3122 3124 3125 3126 3128 3130 3133 3135 3136 3138 3140 3143 3145 3147 3148 3151 3154 3157 3159 3160 3161 3164 3167 3169 3171 3173 3175 3177 3179 3182 3184 3186 3188 3190 3191 3192 3194 3195 3198 3200 3201 3203 3204 3206 3208 3210 3211 3213 3214 3216 3217 3218 3219 3220 3221 3222 3223 3224 3225 3226 3227 3228
3119 3121 3122 3123 3124 3125 3128 3130 3131 3133 3135 3137 3139 3142 3144 3146 3148 3149 3150 3153 3156 3158 3160 3163 3166 3168 3170 3172 3174 3177 3178 3181 3183 3185 3187 3189 3190 3191 3193 3195 3197 3198 3200 3201 3203 3204 3206 3208 3210 3211 3213 3214 3215 3217 3217 3218 3219 3220 3222 3223 3224 3224 3225
3117 3119 3120 3121 3122 3123 3125 3126 3128 3130 3132 3134 3136 3139 3141 3145 3148 3149 3147 3148 3150 3154 3157 3160 3162 3165 3167 3169 3172 3174 3176 3178 3180 3182 3183 3185 3187 3189 3190 3192 3194 3195 3196 3198 3199 3201 3203 3205 3206 3208 3210 3211 3213 3214 3214 3215 3217 3218 3220 3221 3222 3222 3222
3118 3120 3120 3121 3121 3121 3121 3123 3125 3127 3130 3132 3135 3137 3138 3140 3142 3145 3146 3145 3145 3148 3153 3157 3159 3162 3165 3168 3171 3173 3175 3178 3179 3178 3179 3181 3183 3185 3187 3189 3190 3192 3193 3194 3196 3198 3199 3201 3203 3205 3207 3208 3210 3211 3211 3213 3215 3216 3217 3218 3219 3220 3220
3118 3120 3121 3122 3121 3120 3120 3120 3122 3125 3127 3130 3132 3135 3136 3136 3136 3139 3143 3145 3145 3145 3147 3151 3156 3160 3162 3166 3169 3170 3172 3176 3177 3176 3175 3176 3178 3181 3183 3185 3186 3188 3189 3191 3193 3194 3196 3197 3199 3201 3203 3205 3206 3208 3209 3210 3212 3213 3215 3216 3217 3218 3218
3117 3118 3119 3121 3121 3120 3119 3120 3121 3123 3126 3128 3130 3132 3134 3134 3135 3137 3140 3144 3147 3147 3147 3147 3151 3156 3160 3163 3165 3167 3168 3171 3174 3175 3174 3173 3174 3176 3178 3180 3183 3185 3186 3188 3189 3190 3192 3194 3196 3197 3200 3202 3203 3205 3206 3208 3209 3211 3212 3213 3214 3215 3216
3116 3116 3116 3118 3120 3120 3120 3121 3121 3122 3125 3127 3129 3130 3131 3132 3135 3137 3139 3142 3144 3147 3149 3148 3148 3151 3156 3159 3162 3164 3165 3167 3170 3173 3173 3173 3172 3173 3174 3176 3179 3181 3183 3185 3186 3187 3188 3190 3192 3194 3196 3198 3200 3202 3203 3205 3207 3208 3209 3211 3212 3213 3213
3112 3113 3114 3115 3117 3119 3120 3120 3122 3123 3124 3126 3127 3127 3128 3130 3133 3136 3138 3139 3141 3143 3147 3149 3148 3149 3152 3156 3158 3161 3163 3165 3166 3168 3170 3171 3171 3171 3172 3173 3175 3178 3180 3182 3183 3184 3185 3187 3188 3190 3193 3195 3197 3198 3200 3202 3204 3205 3206 3208 3209 3210 3210
3111 3112 3113 3114 3115 3118 3119 3120 3121 3122 3124 3125 3125 3126 3126 3127 3131 3134 3135 3136 3138 3140 3142 3146 3147 3147 3149 3152 3154 3157 3160 3162 3163 3164 3165 3167 3168 3169 3170 3171 3172 3175 3177 3179 3180 3181 3182 3183 3185 3187 3189 3191 3193 3195 3197 3199 3201 3202 3204 3205 3206 3207 3207
3111 3112 3113 3114 3114 3116 3118 3119 3119 3119 3120 3121 3123 3124 3124 3125 3128 3133 3133 3133 3135 3137 3139 3142 3143 3144 3146 3148 3151 3153 3154 3157 3158 3160 3161 3162 3164 3165 3167 3169 3170 3172 3174 3176 3177 3178 3180 3181 3183 3184 3186 3188 3190 3192 3193 3196 3198 3200 3201 3203 3204 3204 3205
3111 3111 3112 3112 3112 3113 3115 3117 3117 3116 3116 3118 3120 3121 3122 3124 3127 3130 3131 3131 3132 3134 3136 3138 3140 3141 3142 3145 3147 3149 3150 3151 3153 3154 3156 3158 3159 3161 3164 3166 3168 3169 3171 3172 3174 3176 3177 3179 3180 3181 3183 3184 3186 3188 3190 3192 3194 3196 3198 3200 3201 3201 3202
3107 3109 3110 3110 3110 3109 3110 3113 3114 3114 3114 3115 3117 3119 3120 3122 3125 3127 3128 3129 3130 3131 3133 3134 3136 3138 3139 3140 3142 3144 3146 3147 3148 3149 3151 3154 3155 3158 3160 3162 3164 3166 3167 3169 3171 3173 3174 3176 3177 3178 3179 3181 3183 3185 3187 3189 3191 3193 3195 3197 3198 3199 3199
3102 3104 3106 3106 3107 3106 3107 3108 3110 3111 3112 3113 3114 3116 3118 3119 3122 3123 3125 3126 3127 3129 3130 3131 3133 3135 3136 3137 3139 3141 3143 3145 3145 3145 3147 3150 3152 3154 3156 3158 3160 3162 3163 3165 3167 3169 3171 3172 3174 3175 3176 3178 3180 3181 3183 3185 3187 3189 3192 3193 3195 3196 3196
3099 3099 3100 3101 3102 3103 3103 3104 3106 3107 3109 3111 3112 3113 3114 3116 3118 3119 3121 3123 3125 3125 3126 3128 3130 3132 3132 3134 3136 3139 3140 3142 3142 3141 3142 3145 3147 3149 3151 3154 3156 3158 3160 3161 3163 3165 3167 3169 3170 3172 3173 3175 3176 3178 3179 3182 3184 3186 3188 3190 3192 3193 3193
3095 3095 3096 3096 3098 3098 3099 3100 3103 3105 3106 3107 3109 3110 3111 3113 3114 3116 3117 3120 3122 3122 3122 3124 3127 3128 3129 3130 3133 3135 3137 3138 3137 3137 3139 3141 3143 3145 3147 3150 3152 3154 3155 3157 3159 3161 3163 3165 3167 3168 3170 3172 3173 3174 3176 3178 3180 3182 3185 3187 3188 3189 3190
3090 3090 3091 3092 3093 3094 3096 3097 3100 3102 3104 3105 3106 3107 3108 3110 3111 3112 3114 3116 3117 3118 3119 3121 3122 3124 3125 3127 3129 3131 3133 3133 3134 3134 3135 3137 3139 3140 3142 3145 3148 3150 3151 3153 3155 3157 3159 3161 3163 3165 3166 3168 3170 3171 3173 3175 3177 3179 3181 3183 3185 3185 3186
3086 3086 3087 3088 3089 3090 3092 3094 3096 3098 3101 3103 3104 3105 3106 3107 3108 3109 3112 3113 3113 3114 3116 3117 3118 3119 3121 3122 3124 3126 3128 3129 3129 3130 3131 3133 3134 3135 3137 3140 3143 3145 3147 3149 3150 3152 3154 3157 3159 3161 3162 3164 3166 3168 3170 3172 3174 3176 3178 3179 3181 3181 3183
3082 3083 3083 3084 3085 3086 3088 3090 3092 3094 3095 3099 3101 3102 3103 3104 3105 3106 3108 3109 3110 3110 3112 3113 3114 3115 3116 3118 3119 3121 3122 3123 3124 3125 3127 3128 3130 3131 3133 3135 3138 3140 3143 3145 3146 3149 3151 3153 3155 3157 3159 3161 3163 3165 3167 3169 3170 3172 3174 3176 3177 3178 3179
3078 3079 3079 3079 3081 3082 3084 3087 3088 3089 3090 3092 3095 3097 3099 3101 3102 3103 3104 3105 3106 3107 3108 3109 3110 3111 3112 3113 3115 3116 3117 3118 3119 3121 3122 3124 3125 3127 3129 3130 3132 3135 3138 3140 3142 3145 3147 3149 3151 3153 3155 3157 3159 3161 3163 3165 3167 3169 3171 3172 3174 3175 3177
3074 3074 3075 3075 3076 3078 3080 3082 3083 3084 3085 3087 3088 3091 3093 3096 3098 3099 3100 3101 3102 3103 3104 3105 3106 3107 3108 3109 3110 3111 3112 3113 3115 3116 3118 3119 3121 3122 3124 3126 3128 3130 3133 3136 3139 3141 3143 3145 3147 3149 3151 3153 3155 3157 3159 3161 3163 3165 3167 3169 3171 3173 3174
3070 3071 3071 3072 3073 3074 3076 3078 3080 3081 3082 3083 3083 3085 3087 3090 3093 3095 3096 3096 3097 3098 3099 3101 3102 3103 3104 3106 3106 3107 3108 3109 3110 3112 3113 3114 3116 3119 3121 3122 3123 3126 3129 3132 3135 3137 3140 3142 3143 3144 3146 3148 3150 3152 3155 3157 3159 3162 3165 3168 3170 3171 3172
3066 3067 3068 3069 3070 3071 3073 3074 3076 3078 3079 3078 3078 3080 3082 3085 3088 3090 3091 3092 3092 3093 3095 3096 3098 3099 3101 3102 3103 3103 3105 3106 3106 3108 3109 3111 3112 3114 3114 3116 3118 3122 3126 3129 3131 3133 3135 3137 3138 3140 3141 3142 3144 3147 3150 3153 3156 3159 3162 3164 3166 3168 3169
3062 3063 3064 3065 3066 3068 3069 3070 3071 3073 3073 3073 3074 3075 3077 3079 3082 3084 3085 3086 3087 3088 3090 3092 3093 3094 3096 3098 3099 3100 3101 3101 3102 3103 3104 3105 3106 3106 3108 3113 3117 3121 3123 3125 3126 3127 3129 3131 3133 3134 3136 3137 3138 3141 3145 3148 3151 3154 3156 3158 3161 3163 3165
3057 3057 3059 3060 3061 3063 3064 3066 3067 3068 3068 3068 3069 3070 3072 3074 3076 3078 3079 3081 3082 3084 3086 3088 3089 3090 3092 3093 3094 3095 3097 3098 3099 3099 3099 3100 3100 3102 3107 3111 3115 3117 3118 3119 3120 3121 3123 3125 3127 3128 3130 3131 3133 3136 3138 3141 3144 3147 3150 3153 3155 3158 3159